sat.trackr.live / text

‹ back to catalog

STARLINK-36840

NORAD 67850 · 2026-034A

PAYLOAD ACTIVE UNKNOWN

§ Identity

Operator
Country
US
Launch date
2026-02-20
Launch site
AFETR
Launch vehicle
Mass (kg)
RCS (m²)

Purposes: comms

External: N2YO · Heavens-Above · Gunter

§ Orbital elements

Epoch: 2026-05-25T04:43:21.338400Z

Period
94.10 min
Inclination
53.1555°
Eccentricity
0.0000580
Mean motion
15.30208779 rev/d
Perigee alt
474.8 km
Apogee alt
475.6 km
Semi-major
6,853.3 km
B*
5.5975e-4
RAAN
208.5881°
Arg perigee
80.1979°
Mean anomaly
279.9087°
Rev number
1,575

§ Raw data

STARLINK-368401 67850U 26034A   26145.19677475  .00016260  00000+0  55975-3 0  99932 67850  53.1555 208.5881 0000580  80.1979 279.9087 15.30208779 15753

JSON: /api/v1/satellites/67850 · /tle

For live sub-satellite position, see the globe view (requires WebGL).

§ Visibility from observer

Set your observer location to see the next 7 days of passes ≥ 10°. The values pass through the URL so the page stays shareable.

No JS? Fill the form by hand. The geolocation button needs JavaScript.